| time (UTC) | temp C | wind direction | speed KPH | gust KPH | rain 1hr cm | rain 24hr cm | rain mn cm | humidity % | barometer mb |
| 20260507035613 | 6 | 62 | 3.2 | 9.7 | 0.00 | 1.45 | 0.00 | 89 | 1010.3 |
| 20260507035414 | 6 | 88 | 3.2 | 9.7 | 0.00 | 1.45 | 0.00 | 89 | 1010.3 |
| 20260507035214 | 6 | 31 | 3.2 | 11.3 | 0.00 | 1.45 | 0.00 | 89 | 1010.2 |
| 20260507035014 | 6 | 66 | 3.2 | 11.3 | 0.00 | 1.47 | 0.00 | 89 | 1010.2 |
| 20260507034813 | 6 | 42 | 1.6 | 11.3 | 0.00 | 1.50 | 0.00 | 89 | 1010.2 |
| 20260507034614 | 6 | 40 | 3.2 | 11.3 | 0.00 | 1.50 | 0.00 | 88 | 1010.2 |
| 20260507034413 | 6 | 76 | 3.2 | 11.3 | 0.00 | 1.52 | 0.00 | 89 | 1010.2 |
| 20260507034214 | 6 | 338 | 3.2 | 9.7 | 0.00 | 1.55 | 0.00 | 89 | 1010.2 |
| 20260507034013 | 6 | 29 | 3.2 | 9.7 | 0.00 | 1.55 | 0.00 | 88 | 1010.2 |
| 20260507033814 | 6 | 31 | 3.2 | 9.7 | 0.00 | 1.57 | 0.00 | 88 | 1010.2 |
| 20260507033614 | 6 | 44 | 4.8 | 12.9 | 0.00 | 1.57 | 0.00 | 88 | 1010.1 |
| 20260507033418 | 6 | 31 | 4.8 | 12.9 | 0.00 | 1.60 | 0.00 | 88 | 1010.1 |
| 20260507033216 | 6 | 67 | 4.8 | 12.9 | 0.00 | 1.63 | 0.00 | 88 | 1010.1 |
| 20260507033014 | 6 | 55 | 4.8 | 12.9 | 0.00 | 1.63 | 0.00 | 88 | 1010.1 |
| 20260507032813 | 6 | 34 | 4.8 | 12.9 | 0.00 | 1.65 | 0.00 | 88 | 1010.1 |
| 20260507032614 | 6 | 35 | 3.2 | 12.9 | 0.00 | 1.65 | 0.00 | 88 | 1010.0 |
| 20260507032413 | 6 | 53 | 3.2 | 12.9 | 0.00 | 1.65 | 0.00 | 88 | 1010.1 |
| 20260507032214 | 6 | 32 | 3.2 | 12.9 | 0.00 | 1.68 | 0.00 | 88 | 1010.0 |
| 20260507032013 | 6 | 17 | 3.2 | 12.9 | 0.00 | 1.70 | 0.00 | 88 | 1010.2 |
| 20260507031814 | 6 | 79 | 3.2 | 12.9 | 0.00 | 1.73 | 0.00 | 88 | 1010.1 |
| 20260507031614 | 6 | 46 | 3.2 | 12.9 | 0.00 | 1.75 | 0.00 | 88 | 1010.1 |
| 20260507031414 | 6 | 75 | 1.6 | 8.0 | 0.00 | 1.75 | 0.00 | 88 | 1010.1 |
| 20260507031214 | 6 | 105 | 1.6 | 8.0 | 0.00 | 1.78 | 0.00 | 88 | 1010.1 |
| 20260507031013 | 6 | 39 | 3.2 | 12.9 | 0.00 | 1.80 | 0.00 | 88 | 1010.1 |
| 20260507030813 | 7 | 53 | 3.2 | 12.9 | 0.00 | 1.83 | 0.00 | 88 | 1010.1 |
| 20260507030614 | 6 | 304 | 3.2 | 12.9 | 0.00 | 1.85 | 0.00 | 88 | 1010.1 |
| 20260507030414 | 6 | 49 | 4.8 | 12.9 | 0.00 | 1.88 | 0.00 | 88 | 1010.1 |
| 20260507030214 | 6 | 45 | 4.8 | 12.9 | 0.00 | 1.91 | 0.00 | 88 | 1010.1 |
| 20260507030013 | 6 | 75 | 4.8 | 11.3 | 0.00 | 1.93 | 0.00 | 88 | 1010.0 |
| 20260507025814 | 6 | 44 | 4.8 | 11.3 | 0.00 | 1.93 | 0.00 | 88 | 1010.0 |
| 20260507025614 | 6 | 60 | 4.8 | 14.5 | 0.00 | 1.96 | 0.00 | 88 | 1010.0 |
| 20260507025413 | 7 | 36 | 4.8 | 14.5 | 0.00 | 1.96 | 0.00 | 88 | 1010.0 |
| 20260507025214 | 7 | 70 | 3.2 | 14.5 | 0.00 | 1.98 | 0.00 | 88 | 1009.9 |
| 20260507025013 | 7 | 49 | 3.2 | 14.5 | 0.00 | 2.01 | 0.00 | 88 | 1009.9 |
| 20260507024814 | 7 | 55 | 3.2 | 14.5 | 0.00 | 2.01 | 0.00 | 88 | 1010.0 |
| 20260507024613 | 7 | 79 | 3.2 | 8.0 | 0.00 | 2.03 | 0.00 | 88 | 1009.9 |
| 20260507024413 | 7 | 32 | 3.2 | 8.0 | 0.00 | 2.03 | 0.00 | 88 | 1009.9 |
| 20260507024213 | 7 | 5 | 3.2 | 8.0 | 0.00 | 2.03 | 0.00 | 88 | 1010.0 |
| 20260507024013 | 7 | 5 | 3.2 | 8.0 | 0.00 | 2.06 | 0.00 | 88 | 1009.9 |
| 20260507023814 | 7 | 49 | 3.2 | 8.0 | 0.00 | 2.08 | 0.00 | 88 | 1009.9 |
| 20260507023614 | 7 | 0 | 3.2 | 8.0 | 0.00 | 2.08 | 0.00 | 88 | 1009.9 |
| 20260507023413 | 7 | 346 | 3.2 | 8.0 | 0.00 | 2.11 | 0.00 | 87 | 1010.0 |
| 20260507023214 | 7 | 57 | 3.2 | 8.0 | 0.00 | 2.11 | 0.00 | 87 | 1009.9 |
| 20260507023013 | 7 | 89 | 3.2 | 8.0 | 0.00 | 2.11 | 0.00 | 87 | 1009.9 |
| 20260507022814 | 7 | 62 | 4.8 | 19.3 | 0.00 | 2.13 | 0.00 | 87 | 1009.9 |
| 20260507022613 | 7 | 59 | 4.8 | 19.3 | 0.00 | 2.13 | 0.00 | 87 | 1009.9 |
| 20260507022414 | 7 | 59 | 4.8 | 19.3 | 0.00 | 2.16 | 0.00 | 87 | 1009.9 |
| 20260507022214 | 7 | 49 | 4.8 | 19.3 | 0.00 | 2.16 | 0.00 | 87 | 1010.0 |
| 20260507022013 | 7 | 18 | 4.8 | 19.3 | 0.00 | 2.18 | 0.00 | 87 | 1009.9 |
| 20260507021816 | 7 | 301 | 4.8 | 14.5 | 0.00 | 2.18 | 0.00 | 87 | 1009.9 |
| 20260507021616 | 7 | 333 | 4.8 | 14.5 | 0.00 | 2.21 | 0.00 | 87 | 1010.0 |
| 20260507021416 | 7 | 355 | 4.8 | 12.9 | 0.00 | 2.21 | 0.00 | 87 | 1010.0 |
| 20260507021216 | 7 | 61 | 4.8 | 12.9 | 0.00 | 2.21 | 0.00 | 87 | 1009.9 |
| 20260507021016 | 7 | 42 | 4.8 | 12.9 | 0.00 | 2.21 | 0.00 | 87 | 1009.9 |
| 20260507020817 | 7 | 49 | 3.2 | 11.3 | 0.00 | 2.21 | 0.00 | 87 | 1009.9 |
| 20260507020615 | 7 | 28 | 3.2 | 8.0 | 0.00 | 2.24 | 0.00 | 88 | 1009.9 |
| 20260507020426 | 7 | 15 | 3.2 | 9.7 | 0.00 | 2.24 | 0.00 | 88 | 1009.8 |
| 20260507020212 | 7 | 56 | 3.2 | 9.7 | 0.00 | 2.24 | 0.00 | 88 | 1009.9 |
| 20260507020011 | 7 | 0 | 3.2 | 9.7 | 0.00 | 2.26 | 0.00 | 88 | 1009.8 |
| 20260507015809 | 7 | 30 | 3.2 | 9.7 | 0.00 | 2.26 | 0.00 | 88 | 1009.9 |
| 20260507015607 | 7 | 44 | 3.2 | 9.7 | 0.00 | 2.29 | 0.00 | 88 | 1009.9 |
| 20260507015404 | 7 | 28 | 3.2 | 8.0 | 0.00 | 2.29 | 0.00 | 88 | 1009.9 |
| 20260507015204 | 7 | 35 | 1.6 | 8.0 | 0.00 | 2.31 | 0.00 | 88 | 1009.9 |
| 20260507015004 | 7 | 42 | 3.2 | 8.0 | 0.00 | 2.31 | 0.00 | 88 | 1009.9 |
| 20260507014803 | 7 | 42 | 3.2 | 8.0 | 0.00 | 2.31 | 0.00 | 88 | 1009.9 |
| 20260507014602 | 7 | 54 | 3.2 | 8.0 | 0.00 | 2.31 | 0.00 | 88 | 1010.0 |
| 20260507014413 | 7 | 54 | 3.2 | 8.0 | 0.00 | 2.31 | 0.00 | 88 | 1009.8 |
| 20260507014200 | 7 | 39 | 3.2 | 8.0 | 0.00 | 2.31 | 0.00 | 87 | 1009.8 |
| 20260507014000 | 7 | 15 | 3.2 | 8.0 | 0.00 | 2.31 | 0.00 | 88 | 1009.8 |
| 20260507013755 | 7 | 48 | 3.2 | 9.7 | 0.00 | 2.34 | 0.00 | 87 | 1009.7 |
| 20260507013555 | 7 | 51 | 3.2 | 9.7 | 0.00 | 2.34 | 0.00 | 87 | 1009.8 |
| 20260507013350 | 7 | 61 | 3.2 | 9.7 | 0.00 | 2.34 | 0.00 | 87 | 1009.7 |
| 20260507013150 | 7 | 56 | 3.2 | 12.9 | 0.00 | 2.34 | 0.00 | 87 | 1009.6 |
| 20260507012947 | 7 | 55 | 3.2 | 12.9 | 0.00 | 2.36 | 0.00 | 87 | 1009.6 |
| 20260507012751 | 7 | 301 | 3.2 | 12.9 | 0.00 | 2.36 | 0.00 | 87 | 1009.6 |
| 20260507012546 | 7 | 344 | 3.2 | 12.9 | 0.00 | 2.36 | 0.00 | 87 | 1009.7 |
| 20260507012345 | 7 | 355 | 3.2 | 12.9 | 0.00 | 2.36 | 0.00 | 87 | 1009.7 |
| 20260507012146 | 7 | 22 | 3.2 | 12.9 | 0.00 | 2.36 | 0.00 | 87 | 1009.7 |
| 20260507011946 | 6 | 5 | 3.2 | 12.9 | 0.00 | 2.39 | 0.00 | 87 | 1009.7 |
| 20260507011745 | 7 | 18 | 3.2 | 12.9 | 0.00 | 2.39 | 0.00 | 87 | 1009.7 |
| 20260507011539 | 7 | 5 | 3.2 | 12.9 | 0.00 | 2.39 | 0.00 | 87 | 1009.7 |
| 20260507011339 | 7 | 5 | 3.2 | 12.9 | 0.00 | 2.39 | 0.00 | 87 | 1009.7 |
| 20260507011137 | 7 | 29 | 3.2 | 12.9 | 0.00 | 2.39 | 0.00 | 87 | 1009.6 |
| 20260507010935 | 7 | 25 | 3.2 | 12.9 | 0.00 | 2.39 | 0.00 | 87 | 1009.6 |
| 20260507010735 | 7 | 9 | 3.2 | 12.9 | 0.00 | 2.39 | 0.00 | 87 | 1009.5 |
| 20260507010536 | 7 | 79 | 4.8 | 14.5 | 0.00 | 2.39 | 0.00 | 87 | 1009.5 |
| 20260507010333 | 6 | 88 | 4.8 | 14.5 | 0.00 | 2.39 | 0.00 | 87 | 1009.5 |
| 20260507010133 | 6 | 345 | 4.8 | 14.5 | 0.00 | 2.39 | 0.00 | 87 | 1009.4 |
| 20260507005935 | 6 | 82 | 4.8 | 14.5 | 0.00 | 2.39 | 0.00 | 88 | 1009.4 |
| 20260507005733 | 6 | 34 | 4.8 | 14.5 | 0.00 | 2.39 | 0.00 | 88 | 1009.4 |
| 20260507005532 | 6 | 47 | 3.2 | 9.7 | 0.00 | 2.39 | 0.00 | 88 | 1009.4 |
| 20260507005334 | 6 | 350 | 3.2 | 9.7 | 0.00 | 2.39 | 0.00 | 88 | 1009.4 |
| 20260507005133 | 6 | 55 | 3.2 | 9.7 | 0.00 | 2.39 | 0.00 | 87 | 1009.4 |
| 20260507004932 | 6 | 49 | 3.2 | 9.7 | 0.00 | 2.39 | 0.00 | 88 | 1009.3 |
| 20260507004731 | 6 | 41 | 3.2 | 9.7 | 0.00 | 2.39 | 0.00 | 88 | 1009.3 |
| 20260507004532 | 6 | 327 | 3.2 | 9.7 | 0.00 | 2.39 | 0.00 | 88 | 1009.3 |
| 20260507004331 | 6 | 50 | 3.2 | 12.9 | 0.00 | 2.41 | 0.00 | 88 | 1009.3 |
| 20260507004132 | 6 | 5 | 3.2 | 12.9 | 0.00 | 2.41 | 0.00 | 88 | 1009.3 |
| 20260507003928 | 6 | 5 | 3.2 | 12.9 | 0.00 | 2.41 | 0.00 | 88 | 1009.2 |
| 20260507003727 | 6 | 34 | 3.2 | 12.9 | 0.00 | 2.41 | 0.00 | 88 | 1009.2 |
| 20260507003527 | 6 | 37 | 3.2 | 12.9 | 0.00 | 2.41 | 0.00 | 88 | 1009.3 |
| 20260507003326 | 6 | 57 | 3.2 | 12.9 | 0.00 | 2.41 | 0.00 | 88 | 1009.2 |
| 20260507003123 | 6 | 63 | 3.2 | 12.9 | 0.00 | 2.41 | 0.00 | 88 | 1009.3 |
| 20260507002924 | 6 | 51 | 3.2 | 9.7 | 0.00 | 2.41 | 0.00 | 88 | 1009.2 |
| 20260507002723 | 6 | 93 | 3.2 | 16.1 | 0.00 | 2.41 | 0.00 | 88 | 1009.3 |
| 20260507002523 | 6 | 38 | 4.8 | 16.1 | 0.00 | 2.41 | 0.00 | 87 | 1009.3 |
| 20260507002322 | 6 | 26 | 3.2 | 16.1 | 0.00 | 2.41 | 0.00 | 87 | 1009.2 |
| 20260507002121 | 6 | 28 | 3.2 | 16.1 | 0.00 | 2.41 | 0.00 | 87 | 1009.3 |
| 20260507001922 | 6 | 30 | 3.2 | 16.1 | 0.00 | 2.41 | 0.00 | 88 | 1009.3 |
| 20260507001721 | 6 | 61 | 3.2 | 17.7 | 0.00 | 2.41 | 0.00 | 87 | 1009.2 |
| 20260507001522 | 6 | 325 | 3.2 | 17.7 | 0.00 | 2.41 | 0.00 | 88 | 1009.2 |
| 20260507001321 | 6 | 326 | 3.2 | 17.7 | 0.00 | 2.41 | 0.00 | 87 | 1009.3 |
| 20260507001121 | 6 | 69 | 3.2 | 17.7 | 0.00 | 2.41 | 0.00 | 87 | 1009.3 |
| 20260507000919 | 6 | 113 | 3.2 | 17.7 | 0.00 | 2.41 | 0.00 | 87 | 1009.3 |
| 20260507000720 | 6 | 63 | 3.2 | 12.9 | 0.00 | 2.41 | 0.00 | 87 | 1009.3 |
| 20260507000519 | 6 | 57 | 3.2 | 11.3 | 0.00 | 2.41 | 0.00 | 87 | 1009.3 |
| 20260507000317 | 6 | 41 | 3.2 | 12.9 | 0.00 | 2.41 | 0.00 | 87 | 1009.4 |
| 20260507000117 | 6 | 38 | 4.8 | 19.3 | 0.00 | 2.41 | 0.00 | 87 | 1009.3 |
| 20260506235915 | 6 | 66 | 4.8 | 19.3 | 0.00 | 2.41 | 0.00 | 87 | 1009.3 |
| 20260506235713 | 6 | 66 | 6.4 | 19.3 | 0.00 | 2.41 | 0.00 | 87 | 1009.4 |
| 20260506235514 | 6 | 74 | 6.4 | 19.3 | 0.00 | 2.41 | 0.00 | 87 | 1009.4 |
| 20260506235315 | 6 | 49 | 6.4 | 19.3 | 0.00 | 2.41 | 0.00 | 87 | 1009.4 |
| 20260506235114 | 6 | 57 | 6.4 | 19.3 | 0.00 | 2.41 | 0.00 | 87 | 1009.3 |
| 20260506234912 | 6 | 67 | 8.0 | 16.1 | 0.00 | 2.41 | 0.00 | 87 | 1009.2 |
| 20260506234706 | 6 | 5 | 8.0 | 16.1 | 0.00 | 2.41 | 0.00 | 87 | 1009.3 |
| 20260506234506 | 6 | 91 | 8.0 | 16.1 | 0.00 | 2.41 | 0.00 | 87 | 1009.2 |
| 20260506234305 | 6 | 50 | 6.4 | 16.1 | 0.00 | 2.41 | 0.00 | 87 | 1009.3 |
| 20260506234106 | 6 | 39 | 8.0 | 16.1 | 0.00 | 2.41 | 0.00 | 87 | 1009.3 |
| 20260506233906 | 6 | 21 | 6.4 | 16.1 | 0.00 | 2.41 | 0.00 | 87 | 1009.3 |
| 20260506233709 | 6 | 57 | 6.4 | 16.1 | 0.00 | 2.41 | 0.00 | 87 | 1009.4 |
| 20260506233504 | 6 | 30 | 6.4 | 17.7 | 0.00 | 2.41 | 0.00 | 87 | 1009.3 |
| 20260506233303 | 6 | 71 | 4.8 | 17.7 | 0.00 | 2.41 | 0.00 | 87 | 1009.4 |
| 20260506233104 | 6 | 71 | 4.8 | 17.7 | 0.00 | 2.41 | 0.00 | 87 | 1009.4 |
| 20260506232904 | 6 | 355 | 4.8 | 17.7 | 0.00 | 2.41 | 0.00 | 88 | 1009.4 |
| 20260506232705 | 6 | 53 | 4.8 | 19.3 | 0.00 | 2.41 | 0.00 | 87 | 1009.5 |
| 20260506232503 | 6 | 101 | 6.4 | 19.3 | 0.00 | 2.41 | 0.00 | 88 | 1009.4 |
| 20260506232306 | 6 | 34 | 6.4 | 19.3 | 0.00 | 2.41 | 0.00 | 87 | 1009.4 |
| 20260506232117 | 6 | 59 | 8.0 | 19.3 | 0.00 | 2.41 | 0.00 | 87 | 1009.4 |
| 20260506231904 | 6 | 38 | 8.0 | 19.3 | 0.00 | 2.41 | 0.00 | 87 | 1009.4 |
| 20260506231704 | 6 | 78 | 8.0 | 19.3 | 0.00 | 2.41 | 0.00 | 88 | 1009.4 |
| 20260506231503 | 6 | 53 | 8.0 | 24.1 | 0.00 | 2.41 | 0.00 | 88 | 1009.3 |
| 20260506231316 | 6 | 25 | 6.4 | 24.1 | 0.00 | 2.41 | 0.00 | 88 | 1009.3 |
| 20260506231104 | 6 | 42 | 6.4 | 24.1 | 0.00 | 2.41 | 0.00 | 88 | 1009.3 |
| 20260506230904 | 6 | 351 | 6.4 | 24.1 | 0.00 | 2.41 | 0.00 | 88 | 1009.3 |
| 20260506230703 | 7 | 74 | 6.4 | 24.1 | 0.00 | 2.41 | 0.00 | 88 | 1009.3 |
| 20260506230503 | 7 | 21 | 6.4 | 16.1 | 0.00 | 2.41 | 0.00 | 88 | 1009.3 |
| 20260506230304 | 7 | 11 | 6.4 | 16.1 | 0.00 | 2.41 | 0.00 | 88 | 1009.2 |
| 20260506230104 | 7 | 86 | 6.4 | 16.1 | 0.00 | 2.41 | 0.00 | 88 | 1009.2 |
| 20260506225904 | 7 | 42 | 6.4 | 17.7 | 0.00 | 2.41 | 0.00 | 88 | 1009.1 |
| 20260506225703 | 7 | 35 | 6.4 | 17.7 | 0.00 | 2.41 | 0.00 | 88 | 1009.1 |
| 20260506225504 | 7 | 33 | 6.4 | 17.7 | 0.00 | 2.41 | 0.00 | 88 | 1009.1 |
| 20260506225305 | 7 | 56 | 6.4 | 17.7 | 0.00 | 2.41 | 0.00 | 88 | 1009.1 |
| 20260506225103 | 7 | 5 | 6.4 | 17.7 | 0.00 | 2.41 | 0.00 | 88 | 1009.1 |
| 20260506224903 | 7 | 86 | 6.4 | 17.7 | 0.00 | 2.41 | 0.00 | 88 | 1009.1 |
| 20260506224704 | 7 | 323 | 6.4 | 17.7 | 0.00 | 2.41 | 0.00 | 88 | 1009.1 |
| 20260506224504 | 7 | 32 | 4.8 | 17.7 | 0.00 | 2.41 | 0.00 | 88 | 1009.1 |
| 20260506224304 | 7 | 30 | 4.8 | 17.7 | 0.00 | 2.41 | 0.00 | 88 | 1009.1 |
| 20260506224103 | 7 | 74 | 4.8 | 17.7 | 0.00 | 2.41 | 0.00 | 88 | 1009.0 |
| 20260506223903 | 7 | 17 | 4.8 | 17.7 | 0.00 | 2.41 | 0.00 | 88 | 1009.0 |
| 20260506223704 | 7 | 5 | 4.8 | 12.9 | 0.00 | 2.41 | 0.00 | 88 | 1008.9 |
| 20260506223504 | 7 | 79 | 4.8 | 14.5 | 0.00 | 2.41 | 0.00 | 88 | 1008.8 |
| 20260506223303 | 7 | 57 | 6.4 | 14.5 | 0.00 | 2.41 | 0.00 | 89 | 1008.9 |
| 20260506223103 | 7 | 23 | 6.4 | 16.1 | 0.00 | 2.41 | 0.00 | 89 | 1008.9 |
| 20260506222904 | 7 | 69 | 4.8 | 16.1 | 0.00 | 2.41 | 0.00 | 89 | 1008.9 |
| 20260506222703 | 7 | 355 | 4.8 | 16.1 | 0.00 | 2.41 | 0.00 | 88 | 1008.9 |
| 20260506222517 | 7 | 25 | 4.8 | 16.1 | 0.00 | 2.41 | 0.00 | 88 | 1008.9 |
| 20260506222306 | 7 | 72 | 4.8 | 16.1 | 0.00 | 2.41 | 0.00 | 88 | 1008.9 |
| 20260506222104 | 7 | 69 | 4.8 | 12.9 | 0.00 | 2.41 | 0.00 | 88 | 1008.8 |
| 20260506221904 | 7 | 323 | 4.8 | 16.1 | 0.00 | 2.41 | 0.00 | 88 | 1008.9 |
| 20260506221703 | 7 | 51 | 4.8 | 16.1 | 0.00 | 2.41 | 0.00 | 88 | 1008.9 |
| 20260506221502 | 7 | 17 | 4.8 | 16.1 | 0.00 | 2.41 | 0.00 | 88 | 1009.0 |
| 20260506221301 | 7 | 9 | 4.8 | 16.1 | 0.00 | 2.41 | 0.00 | 88 | 1008.9 |
| 20260506221101 | 7 | 0 | 4.8 | 16.1 | 0.00 | 2.41 | 0.00 | 88 | 1008.9 |
| 20260506220901 | 8 | 34 | 4.8 | 16.1 | 0.00 | 2.41 | 0.00 | 88 | 1009.1 |
| 20260506220701 | 8 | 10 | 4.8 | 16.1 | 0.00 | 2.41 | 0.00 | 88 | 1008.9 |
| 20260506220501 | 8 | 40 | 4.8 | 16.1 | 0.00 | 2.41 | 0.00 | 88 | 1008.9 |
| 20260506220301 | 8 | 350 | 4.8 | 16.1 | 0.00 | 2.41 | 0.00 | 88 | 1008.9 |
| 20260506220109 | 8 | 36 | 4.8 | 16.1 | 0.00 | 2.41 | 0.00 | 88 | 1008.9 |
| 20260506215859 | 8 | 325 | 4.8 | 16.1 | 0.00 | 2.41 | 2.41 | 88 | 1008.9 |
| 20260506215700 | 8 | 63 | 4.8 | 16.1 | 0.00 | 2.41 | 2.41 | 88 | 1008.9 |
| 20260506215459 | 8 | 342 | 6.4 | 16.1 | 0.00 | 2.41 | 2.41 | 88 | 1008.9 |
| 20260506215300 | 8 | 71 | 6.4 | 16.1 | 0.00 | 2.41 | 2.41 | 88 | 1009.0 |
| 20260506215059 | 8 | 28 | 4.8 | 19.3 | 0.00 | 2.41 | 2.41 | 88 | 1008.9 |
| 20260506214900 | 8 | 76 | 4.8 | 19.3 | 0.00 | 2.41 | 2.41 | 88 | 1008.8 |
| 20260506214659 | 8 | 13 | 4.8 | 19.3 | 0.00 | 2.41 | 2.41 | 88 | 1008.8 |
| 20260506214459 | 8 | 74 | 4.8 | 19.3 | 0.00 | 2.41 | 2.41 | 88 | 1008.8 |
| 20260506214300 | 8 | 84 | 4.8 | 19.3 | 0.00 | 2.41 | 2.41 | 88 | 1008.7 |
| 20260506214100 | 8 | 346 | 4.8 | 14.5 | 0.00 | 2.41 | 2.41 | 88 | 1008.8 |
| 20260506213900 | 8 | 42 | 4.8 | 14.5 | 0.00 | 2.41 | 2.41 | 88 | 1008.8 |
| 20260506213659 | 8 | 58 | 6.4 | 14.5 | 0.00 | 2.41 | 2.41 | 88 | 1008.8 |
| 20260506213459 | 8 | 46 | 4.8 | 16.1 | 0.00 | 2.41 | 2.41 | 88 | 1008.7 |
| 20260506213300 | 8 | 58 | 6.4 | 16.1 | 0.00 | 2.41 | 2.41 | 88 | 1008.7 |
| 20260506213059 | 9 | 52 | 6.4 | 17.7 | 0.00 | 2.41 | 2.41 | 88 | 1008.6 |
| 20260506212900 | 9 | 355 | 6.4 | 17.7 | 0.00 | 2.41 | 2.41 | 88 | 1008.7 |
| 20260506212659 | 9 | 24 | 6.4 | 17.7 | 0.00 | 2.41 | 2.41 | 88 | 1008.7 |
| 20260506212459 | 9 | 72 | 6.4 | 17.7 | 0.00 | 2.41 | 2.41 | 88 | 1008.8 |
| 20260506212300 | 9 | 24 | 4.8 | 17.7 | 0.00 | 2.41 | 2.41 | 88 | 1008.8 |
| 20260506212100 | 9 | 34 | 4.8 | 14.5 | 0.00 | 2.41 | 2.41 | 88 | 1008.6 |
| 20260506211859 | 9 | 46 | 3.2 | 14.5 | 0.00 | 2.41 | 2.41 | 88 | 1008.6 |
| 20260506211700 | 9 | 19 | 3.2 | 12.9 | 0.00 | 2.41 | 2.41 | 88 | 1008.6 |
| 20260506211455 | 9 | 355 | 3.2 | 16.1 | 0.00 | 2.41 | 2.41 | 89 | 1008.6 |
| 20260506211255 | 9 | 38 | 4.8 | 16.1 | 0.00 | 2.41 | 2.41 | 89 | 1008.6 |
| 20260506211056 | 9 | 61 | 4.8 | 16.1 | 0.00 | 2.41 | 2.41 | 89 | 1008.6 |
| 20260506210853 | 9 | 5 | 4.8 | 16.1 | 0.00 | 2.41 | 2.41 | 89 | 1008.5 |
| 20260506210652 | 9 | 80 | 3.2 | 16.1 | 0.00 | 2.41 | 2.41 | 89 | 1008.5 |
| 20260506210452 | 9 | 54 | 3.2 | 12.9 | 0.00 | 2.41 | 2.41 | 89 | 1008.5 |
| 20260506210251 | 9 | 272 | 3.2 | 12.9 | 0.00 | 2.41 | 2.41 | 89 | 1008.6 |
| 20260506210051 | 9 | 347 | 3.2 | 12.9 | 0.00 | 2.41 | 2.41 | 89 | 1008.5 |
| 20260506205852 | 9 | 13 | 3.2 | 12.9 | 0.00 | 2.41 | 2.41 | 89 | 1008.4 |
| 20260506205652 | 9 | 340 | 3.2 | 12.9 | 0.00 | 2.41 | 2.41 | 89 | 1008.5 |
| 20260506205451 | 9 | 20 | 3.2 | 12.9 | 0.00 | 2.41 | 2.41 | 89 | 1008.5 |
| 20260506205251 | 9 | 61 | 3.2 | 12.9 | 0.00 | 2.41 | 2.41 | 90 | 1008.4 |
| 20260506205052 | 9 | 0 | 3.2 | 12.9 | 0.00 | 2.41 | 2.41 | 90 | 1008.4 |
| 20260506204851 | 9 | 355 | 3.2 | 12.9 | 0.00 | 2.41 | 2.41 | 90 | 1008.3 |
| 20260506204652 | 9 | 350 | 3.2 | 12.9 | 0.00 | 2.41 | 2.41 | 89 | 1008.3 |
| 20260506204450 | 9 | 15 | 1.6 | 12.9 | 0.00 | 2.41 | 2.41 | 89 | 1008.4 |
| 20260506204247 | 9 | 9 | 1.6 | 12.9 | 0.00 | 2.41 | 2.41 | 89 | 1008.4 |
| 20260506204048 | 10 | 33 | 1.6 | 8.0 | 0.00 | 2.41 | 2.41 | 90 | 1008.4 |
| 20260506203846 | 10 | 42 | 1.6 | 8.0 | 0.00 | 2.41 | 2.41 | 90 | 1008.3 |
| 20260506203645 | 10 | 45 | 3.2 | 12.9 | 0.00 | 2.41 | 2.41 | 90 | 1008.3 |
| 20260506203445 | 10 | 52 | 3.2 | 12.9 | 0.00 | 2.41 | 2.41 | 89 | 1008.3 |
| 20260506203245 | 10 | 52 | 3.2 | 12.9 | 0.00 | 2.41 | 2.41 | 89 | 1008.3 |
| 20260506203046 | 10 | 16 | 3.2 | 12.9 | 0.00 | 2.41 | 2.41 | 90 | 1008.4 |
| 20260506202846 | 10 | 65 | 3.2 | 12.9 | 0.00 | 2.41 | 2.41 | 89 | 1008.3 |
| 20260506202645 | 10 | 53 | 3.2 | 11.3 | 0.00 | 2.41 | 2.41 | 90 | 1008.4 |
| 20260506202445 | 10 | 15 | 3.2 | 6.4 | 0.00 | 2.41 | 2.41 | 90 | 1008.5 |
| 20260506202243 | 10 | 11 | 3.2 | 6.4 | 0.00 | 2.41 | 2.41 | 90 | 1008.4 |
| 20260506202042 | 10 | 342 | 3.2 | 6.4 | 0.00 | 2.41 | 2.41 | 90 | 1008.3 |
| 20260506201842 | 10 | 40 | 3.2 | 6.4 | 0.00 | 2.41 | 2.41 | 90 | 1008.4 |
| 20260506201641 | 10 | 32 | 3.2 | 6.4 | 0.00 | 2.41 | 2.41 | 90 | 1008.4 |
| 20260506201441 | 10 | 28 | 3.2 | 6.4 | 0.00 | 2.41 | 2.41 | 90 | 1008.4 |
| 20260506201241 | 10 | 31 | 3.2 | 6.4 | 0.00 | 2.41 | 2.41 | 90 | 1008.3 |
| 20260506201039 | 10 | 30 | 3.2 | 12.9 | 0.00 | 2.41 | 2.41 | 90 | 1008.3 |
| 20260506200840 | 10 | 30 | 3.2 | 12.9 | 0.00 | 2.41 | 2.41 | 90 | 1008.3 |
| 20260506200638 | 10 | 12 | 3.2 | 12.9 | 0.00 | 2.41 | 2.41 | 90 | 1008.2 |
| 20260506200435 | 10 | 355 | 3.2 | 12.9 | 0.00 | 2.41 | 2.41 | 90 | 1008.2 |
| 20260506200236 | 10 | 15 | 3.2 | 12.9 | 0.00 | 2.41 | 2.41 | 90 | 1008.1 |
| 20260506200033 | 10 | 50 | 3.2 | 9.7 | 0.00 | 2.41 | 2.41 | 90 | 1008.1 |
| 20260506195832 | 10 | 5 | 3.2 | 9.7 | 0.00 | 2.41 | 2.41 | 90 | 1007.9 |
| 20260506195631 | 10 | 11 | 3.2 | 8.0 | 0.00 | 2.41 | 2.41 | 91 | 1008.0 |
| 20260506195432 | 10 | 5 | 3.2 | 8.0 | 0.00 | 2.41 | 2.41 | 90 | 1007.9 |
| 20260506195232 | 10 | 49 | 1.6 | 8.0 | 0.00 | 2.41 | 2.41 | 90 | 1007.9 |
| 20260506195032 | 10 | 44 | 1.6 | 6.4 | 0.00 | 2.41 | 2.41 | 91 | 1007.9 |
| 20260506194831 | 10 | 81 | 1.6 | 6.4 | 0.00 | 2.41 | 2.41 | 91 | 1008.0 |
| 20260506194632 | 10 | 27 | 1.6 | 6.4 | 0.00 | 2.41 | 2.41 | 91 | 1008.0 |
| 20260506194432 | 10 | 24 | 3.2 | 6.4 | 0.00 | 2.41 | 2.41 | 90 | 1007.9 |
| 20260506194231 | 10 | 23 | 3.2 | 6.4 | 0.00 | 2.41 | 2.41 | 90 | 1008.0 |
| 20260506194031 | 10 | 44 | 1.6 | 6.4 | 0.00 | 2.41 | 2.41 | 90 | 1007.9 |
| 20260506193832 | 10 | 48 | 1.6 | 6.4 | 0.00 | 2.41 | 2.41 | 90 | 1007.9 |
| 20260506193632 | 10 | 37 | 1.6 | 6.4 | 0.00 | 2.41 | 2.41 | 90 | 1007.9 |
| 20260506193432 | 10 | 17 | 0.0 | 6.4 | 0.00 | 2.41 | 2.41 | 90 | 1007.9 |
| 20260506193232 | 10 | 57 | 0.0 | 4.8 | 0.00 | 2.41 | 2.41 | 90 | 1007.9 |
| 20260506193031 | 10 | 60 | 1.6 | 6.4 | 0.00 | 2.41 | 2.41 | 90 | 1008.0 |
| 20260506192830 | 10 | 60 | 1.6 | 6.4 | 0.00 | 2.41 | 2.41 | 90 | 1008.0 |
| 20260506192629 | 10 | 60 | 1.6 | 6.4 | 0.00 | 2.41 | 2.41 | 90 | 1007.9 |
| 20260506192429 | 10 | 60 | 1.6 | 6.4 | 0.00 | 2.41 | 2.41 | 90 | 1007.9 |
| 20260506192229 | 10 | 61 | 1.6 | 6.4 | 0.00 | 2.41 | 2.41 | 90 | 1007.9 |
| 20260506192029 | 10 | 10 | 1.6 | 9.7 | 0.00 | 2.41 | 2.41 | 90 | 1007.9 |
| 20260506191829 | 10 | 44 | 3.2 | 9.7 | 0.00 | 2.41 | 2.41 | 90 | 1007.8 |
| 20260506191627 | 10 | 40 | 3.2 | 11.3 | 0.00 | 2.41 | 2.41 | 90 | 1007.7 |
| 20260506191427 | 10 | 56 | 3.2 | 14.5 | 0.00 | 2.41 | 2.41 | 90 | 1007.7 |
| 20260506191225 | 10 | 57 | 4.8 | 14.5 | 0.00 | 2.41 | 2.41 | 90 | 1007.7 |
| 20260506191023 | 10 | 5 | 4.8 | 14.5 | 0.00 | 2.41 | 2.41 | 90 | 1007.7 |
| 20260506190824 | 10 | 355 | 4.8 | 14.5 | 0.00 | 2.41 | 2.41 | 90 | 1007.6 |
| 20260506190624 | 10 | 24 | 4.8 | 14.5 | 0.00 | 2.41 | 2.41 | 90 | 1007.5 |
| 20260506190424 | 10 | 25 | 4.8 | 14.5 | 0.00 | 2.41 | 2.41 | 90 | 1007.6 |
| 20260506190223 | 10 | 29 | 4.8 | 14.5 | 0.00 | 2.41 | 2.41 | 90 | 1007.4 |
| 20260506190023 | 10 | 28 | 4.8 | 14.5 | 0.00 | 2.41 | 2.41 | 90 | 1007.5 |
| 20260506185823 | 10 | 55 | 4.8 | 16.1 | 0.00 | 2.41 | 2.41 | 90 | 1007.4 |
| 20260506185623 | 10 | 90 | 4.8 | 16.1 | 0.00 | 2.41 | 2.41 | 90 | 1007.5 |
| 20260506185423 | 10 | 13 | 3.2 | 16.1 | 0.00 | 2.41 | 2.41 | 90 | 1007.5 |
| 20260506185221 | 10 | 40 | 3.2 | 16.1 | 0.00 | 2.41 | 2.41 | 90 | 1007.4 |
| 20260506185019 | 10 | 23 | 3.2 | 16.1 | 0.00 | 2.41 | 2.41 | 90 | 1007.5 |
| 20260506184820 | 10 | 34 | 3.2 | 8.0 | 0.00 | 2.41 | 2.41 | 90 | 1007.5 |
| 20260506184619 | 10 | 28 | 3.2 | 8.0 | 0.00 | 2.41 | 2.41 | 90 | 1007.5 |
| 20260506184417 | 10 | 15 | 3.2 | 8.0 | 0.00 | 2.41 | 2.41 | 90 | 1007.5 |
| 20260506184216 | 10 | 78 | 3.2 | 8.0 | 0.00 | 2.41 | 2.41 | 90 | 1007.6 |
| 20260506184016 | 10 | 347 | 3.2 | 8.0 | 0.00 | 2.41 | 2.41 | 90 | 1007.5 |
| 20260506183813 | 10 | 56 | 3.2 | 8.0 | 0.00 | 2.41 | 2.41 | 90 | 1007.5 |
| 20260506183611 | 10 | 21 | 3.2 | 12.9 | 0.00 | 2.41 | 2.41 | 90 | 1007.5 |
| 20260506183411 | 10 | 59 | 3.2 | 12.9 | 0.00 | 2.41 | 2.41 | 90 | 1007.4 |
| 20260506183211 | 10 | 341 | 3.2 | 12.9 | 0.00 | 2.41 | 2.41 | 90 | 1007.3 |
| 20260506183011 | 10 | 15 | 4.8 | 12.9 | 0.00 | 2.41 | 2.41 | 89 | 1007.3 |
| 20260506182806 | 10 | 54 | 3.2 | 12.9 | 0.00 | 2.41 | 2.41 | 89 | 1007.3 |
| 20260506182606 | 10 | 57 | 3.2 | 9.7 | 0.00 | 2.41 | 2.41 | 89 | 1007.3 |
| 20260506182406 | 10 | 16 | 3.2 | 9.7 | 0.00 | 2.41 | 2.41 | 89 | 1007.3 |
| 20260506182205 | 10 | 0 | 3.2 | 11.3 | 0.00 | 2.41 | 2.41 | 89 | 1007.3 |
| 20260506182017 | 10 | 330 | 3.2 | 11.3 | 0.00 | 2.41 | 2.41 | 89 | 1007.2 |
| 20260506181805 | 10 | 55 | 3.2 | 11.3 | 0.00 | 2.41 | 2.41 | 89 | 1007.2 |
| 20260506181605 | 10 | 355 | 3.2 | 11.3 | 0.00 | 2.41 | 2.41 | 89 | 1007.2 |
| 20260506181405 | 10 | 57 | 3.2 | 11.3 | 0.00 | 2.41 | 2.41 | 89 | 1007.2 |
| 20260506181206 | 10 | 355 | 3.2 | 11.3 | 0.00 | 2.41 | 2.41 | 90 | 1007.2 |
| 20260506181006 | 10 | 0 | 3.2 | 11.3 | 0.00 | 2.41 | 2.41 | 90 | 1007.2 |
| 20260506180806 | 10 | 355 | 4.8 | 11.3 | 0.00 | 2.41 | 2.41 | 90 | 1007.2 |
| 20260506180605 | 10 | 19 | 4.8 | 12.9 | 0.00 | 2.41 | 2.41 | 89 | 1007.1 |
| 20260506180405 | 10 | 44 | 4.8 | 12.9 | 0.00 | 2.41 | 2.41 | 89 | 1007.2 |
| 20260506180206 | 10 | 25 | 4.8 | 12.9 | 0.00 | 2.41 | 2.41 | 89 | 1007.1 |
| 20260506180006 | 10 | 341 | 4.8 | 12.9 | 0.00 | 2.41 | 2.41 | 89 | 1007.0 |
| 20260506175805 | 10 | 10 | 4.8 | 14.5 | 0.00 | 2.41 | 2.41 | 90 | 1007.1 |
| 20260506175604 | 10 | 48 | 4.8 | 14.5 | 0.00 | 2.41 | 2.41 | 90 | 1007.0 |
| 20260506175405 | 10 | 26 | 4.8 | 14.5 | 0.00 | 2.41 | 2.41 | 89 | 1007.0 |
| 20260506175205 | 10 | 34 | 4.8 | 14.5 | 0.00 | 2.41 | 2.41 | 90 | 1007.1 |
| 20260506175005 | 10 | 42 | 4.8 | 14.5 | 0.00 | 2.41 | 2.41 | 90 | 1007.1 |
| 20260506174805 | 10 | 19 | 4.8 | 11.3 | 0.00 | 2.41 | 2.41 | 90 | 1007.0 |
| 20260506174604 | 10 | 82 | 4.8 | 11.3 | 0.00 | 2.41 | 2.41 | 90 | 1007.1 |
| 20260506174405 | 10 | 88 | 4.8 | 11.3 | 0.00 | 2.41 | 2.41 | 90 | 1007.1 |
| 20260506174205 | 10 | 49 | 3.2 | 11.3 | 0.00 | 2.41 | 2.41 | 90 | 1007.0 |
| 20260506174004 | 10 | 78 | 3.2 | 11.3 | 0.00 | 2.41 | 2.41 | 90 | 1007.1 |
| 20260506173805 | 10 | 65 | 3.2 | 11.3 | 0.00 | 2.41 | 2.41 | 90 | 1007.1 |
| 20260506173606 | 10 | 322 | 3.2 | 8.0 | 0.00 | 2.41 | 2.41 | 90 | 1007.0 |
| 20260506173405 | 10 | 9 | 3.2 | 8.0 | 0.00 | 2.41 | 2.41 | 90 | 1007.0 |
| 20260506173204 | 10 | 25 | 4.8 | 8.0 | 0.00 | 2.41 | 2.41 | 90 | 1007.0 |
| 20260506173003 | 10 | 43 | 4.8 | 12.9 | 0.00 | 2.41 | 2.41 | 90 | 1007.0 |
| 20260506172803 | 10 | 48 | 4.8 | 12.9 | 0.00 | 2.41 | 2.41 | 90 | 1007.1 |
| 20260506172602 | 10 | 17 | 3.2 | 12.9 | 0.00 | 2.41 | 2.41 | 90 | 1007.1 |
| 20260506172402 | 10 | 50 | 3.2 | 12.9 | 0.00 | 2.41 | 2.41 | 90 | 1007.1 |
| 20260506172203 | 10 | 29 | 3.2 | 12.9 | 0.00 | 2.41 | 2.41 | 90 | 1007.0 |
| 20260506172003 | 10 | 49 | 3.2 | 9.7 | 0.00 | 2.41 | 2.41 | 90 | 1007.0 |
| 20260506171803 | 10 | 5 | 3.2 | 6.4 | 0.00 | 2.41 | 2.41 | 90 | 1007.0 |
| 20260506171602 | 10 | 51 | 3.2 | 8.0 | 0.00 | 2.41 | 2.41 | 90 | 1007.0 |
| 20260506171402 | 10 | 55 | 3.2 | 8.0 | 0.00 | 2.41 | 2.41 | 90 | 1007.0 |
| 20260506171201 | 10 | 56 | 3.2 | 8.0 | 0.00 | 2.41 | 2.41 | 90 | 1007.0 |
| 20260506171001 | 10 | 62 | 3.2 | 8.0 | 0.00 | 2.41 | 2.41 | 90 | 1007.0 |
| 20260506170801 | 10 | 44 | 3.2 | 11.3 | 0.00 | 2.41 | 2.41 | 90 | 1007.0 |
| 20260506170601 | 10 | 49 | 3.2 | 11.3 | 0.00 | 2.41 | 2.41 | 90 | 1006.8 |
| 20260506170401 | 10 | 106 | 3.2 | 11.3 | 0.00 | 2.41 | 2.41 | 90 | 1006.9 |
| 20260506170201 | 10 | 54 | 3.2 | 11.3 | 0.00 | 2.41 | 2.41 | 90 | 1006.8 |
| 20260506170001 | 10 | 355 | 3.2 | 11.3 | 0.00 | 2.41 | 2.41 | 90 | 1006.8 |
| 20260506165802 | 10 | 67 | 3.2 | 9.7 | 0.00 | 2.41 | 2.41 | 90 | 1006.8 |
| 20260506165601 | 10 | 30 | 4.8 | 9.7 | 0.00 | 2.41 | 2.41 | 90 | 1007.0 |
| 20260506165359 | 10 | 58 | 3.2 | 9.7 | 0.00 | 2.41 | 2.41 | 90 | 1007.0 |
| 20260506165159 | 10 | 57 | 3.2 | 9.7 | 0.00 | 2.41 | 2.41 | 89 | 1007.0 |
| 20260506164959 | 10 | 50 | 3.2 | 9.7 | 0.00 | 2.41 | 2.41 | 89 | 1007.0 |
| 20260506164759 | 11 | 49 | 3.2 | 11.3 | 0.00 | 2.41 | 2.41 | 90 | 1006.9 |
| 20260506164559 | 11 | 34 | 3.2 | 11.3 | 0.00 | 2.41 | 2.41 | 89 | 1007.0 |
| 20260506164359 | 11 | 68 | 3.2 | 11.3 | 0.00 | 2.41 | 2.41 | 89 | 1007.0 |
| 20260506164159 | 11 | 0 | 3.2 | 11.3 | 0.00 | 2.41 | 2.41 | 89 | 1007.0 |
| 20260506163959 | 11 | 348 | 3.2 | 11.3 | 0.00 | 2.41 | 2.41 | 89 | 1006.9 |
| 20260506163758 | 11 | 17 | 3.2 | 6.4 | 0.00 | 2.41 | 2.41 | 89 | 1007.0 |
| 20260506163555 | 11 | 0 | 3.2 | 8.0 | 0.00 | 2.41 | 2.41 | 89 | 1007.0 |
| 20260506163356 | 11 | 42 | 3.2 | 12.9 | 0.00 | 2.41 | 2.41 | 89 | 1007.0 |
| 20260506163155 | 11 | 53 | 3.2 | 14.5 | 0.00 | 2.41 | 2.41 | 89 | 1006.9 |
| 20260506162955 | 11 | 42 | 3.2 | 14.5 | 0.00 | 2.41 | 2.41 | 90 | 1006.9 |
| 20260506162756 | 11 | 355 | 3.2 | 14.5 | 0.00 | 2.41 | 2.41 | 89 | 1006.9 |
| 20260506162555 | 11 | 49 | 3.2 | 14.5 | 0.00 | 2.41 | 2.41 | 89 | 1006.9 |
| 20260506162355 | 11 | 349 | 3.2 | 14.5 | 0.00 | 2.41 | 2.41 | 89 | 1006.8 |
| 20260506162155 | 11 | 89 | 3.2 | 16.1 | 0.00 | 2.41 | 2.41 | 90 | 1006.8 |
| 20260506161955 | 11 | 5 | 4.8 | 16.1 | 0.00 | 2.41 | 2.41 | 90 | 1006.8 |
| 20260506161753 | 11 | 5 | 4.8 | 16.1 | 0.00 | 2.41 | 2.41 | 89 | 1006.8 |
| 20260506161553 | 11 | 61 | 4.8 | 16.1 | 0.00 | 2.41 | 2.41 | 89 | 1006.7 |
| 20260506161353 | 11 | 78 | 4.8 | 16.1 | 0.00 | 2.41 | 2.41 | 89 | 1006.7 |
| 20260506161153 | 11 | 49 | 4.8 | 14.5 | 0.00 | 2.41 | 2.41 | 89 | 1006.7 |
| 20260506160954 | 11 | 49 | 4.8 | 14.5 | 0.00 | 2.41 | 2.41 | 89 | 1006.8 |
| 20260506160753 | 11 | 43 | 4.8 | 14.5 | 0.00 | 2.41 | 2.41 | 89 | 1006.7 |
| 20260506160551 | 11 | 325 | 4.8 | 12.9 | 0.00 | 2.41 | 2.41 | 89 | 1006.7 |
| 20260506160350 | 11 | 48 | 3.2 | 9.7 | 0.00 | 2.41 | 2.41 | 89 | 1006.8 |
| 20260506160149 | 11 | 24 | 3.2 | 9.7 | 0.00 | 2.41 | 2.41 | 90 | 1006.8 |
| 20260506155947 | 11 | 24 | 4.8 | 14.5 | 0.00 | 2.41 | 2.41 | 90 | 1006.8 |
| 20260506155747 | 11 | 33 | 4.8 | 14.5 | 0.00 | 2.41 | 2.41 | 89 | 1006.9 |
| 20260506155547 | 11 | 35 | 4.8 | 14.5 | 0.00 | 2.41 | 2.41 | 89 | 1006.9 |
| 20260506155347 | 11 | 22 | 3.2 | 14.5 | 0.00 | 2.41 | 2.41 | 89 | 1006.9 |
| 20260506155141 | 11 | 5 | 3.2 | 14.5 | 0.00 | 2.41 | 2.41 | 89 | 1006.9 |
| 20260506154943 | 11 | 24 | 3.2 | 8.0 | 0.00 | 2.41 | 2.41 | 89 | 1006.9 |
| 20260506154741 | 11 | 38 | 3.2 | 8.0 | 0.00 | 2.41 | 2.41 | 90 | 1006.9 |
| 20260506154541 | 11 | 65 | 3.2 | 8.0 | 0.00 | 2.41 | 2.41 | 90 | 1007.0 |
| 20260506154341 | 11 | 28 | 4.8 | 14.5 | 0.00 | 2.41 | 2.41 | 89 | 1006.9 |
| 20260506154141 | 11 | 0 | 4.8 | 14.5 | 0.00 | 2.41 | 2.41 | 89 | 1006.9 |
| 20260506153941 | 11 | 38 | 4.8 | 14.5 | 0.00 | 2.41 | 2.41 | 89 | 1006.8 |
| 20260506153740 | 11 | 49 | 4.8 | 14.5 | 0.00 | 2.41 | 2.41 | 89 | 1007.0 |
| 20260506153545 | 11 | 9 | 4.8 | 14.5 | 0.00 | 2.41 | 2.41 | 90 | 1006.9 |
| 20260506153345 | 11 | 62 | 3.2 | 11.3 | 0.00 | 2.41 | 2.41 | 90 | 1006.9 |
| 20260506153144 | 11 | 326 | 3.2 | 9.7 | 0.00 | 2.41 | 2.41 | 90 | 1006.8 |
| 20260506152939 | 11 | 342 | 3.2 | 9.7 | 0.00 | 2.41 | 2.41 | 90 | 1006.7 |
| 20260506152737 | 11 | 20 | 3.2 | 9.7 | 0.00 | 2.41 | 2.41 | 90 | 1006.7 |
| 20260506152535 | 11 | 11 | 3.2 | 11.3 | 0.00 | 2.41 | 2.41 | 90 | 1006.7 |
| 20260506152335 | 11 | 55 | 3.2 | 11.3 | 0.00 | 2.41 | 2.41 | 90 | 1006.7 |
| 20260506152135 | 11 | 65 | 3.2 | 11.3 | 0.00 | 2.41 | 2.41 | 90 | 1006.8 |
| 20260506151935 | 11 | 49 | 3.2 | 11.3 | 0.00 | 2.41 | 2.41 | 90 | 1006.7 |
| 20260506151735 | 11 | 59 | 4.8 | 11.3 | 0.00 | 2.41 | 2.41 | 90 | 1006.7 |
| 20260506151535 | 11 | 55 | 4.8 | 11.3 | 0.00 | 2.41 | 2.41 | 90 | 1006.7 |
| 20260506151335 | 11 | 355 | 3.2 | 11.3 | 0.00 | 2.41 | 2.41 | 90 | 1006.7 |
| 20260506151135 | 11 | 351 | 3.2 | 11.3 | 0.00 | 2.41 | 2.41 | 90 | 1006.7 |
| 20260506150934 | 11 | 42 | 3.2 | 12.9 | 0.00 | 2.41 | 2.41 | 90 | 1006.7 |
| 20260506150732 | 11 | 20 | 4.8 | 12.9 | 0.00 | 2.41 | 2.41 | 90 | 1006.7 |
| 20260506150531 | 11 | 37 | 3.2 | 12.9 | 0.00 | 2.41 | 2.41 | 90 | 1006.7 |
| 20260506150331 | 11 | 43 | 4.8 | 12.9 | 0.00 | 2.41 | 2.41 | 90 | 1006.7 |
| 20260506150130 | 11 | 11 | 4.8 | 12.9 | 0.00 | 2.41 | 2.41 | 90 | 1006.7 |
| 20260506145929 | 11 | 50 | 4.8 | 12.9 | 0.00 | 2.41 | 2.41 | 90 | 1006.7 |
| 20260506145728 | 11 | 5 | 3.2 | 9.7 | 0.00 | 2.41 | 2.41 | 90 | 1006.6 |
| 20260506145529 | 11 | 51 | 3.2 | 9.7 | 0.00 | 2.41 | 2.41 | 90 | 1006.6 |
| 20260506145329 | 11 | 39 | 4.8 | 9.7 | 0.00 | 2.41 | 2.41 | 90 | 1006.6 |
| 20260506145129 | 11 | 0 | 4.8 | 9.7 | 0.00 | 2.41 | 2.41 | 90 | 1006.6 |
| 20260506144929 | 11 | 44 | 3.2 | 9.7 | 0.00 | 2.41 | 2.41 | 90 | 1006.5 |
| 20260506144729 | 11 | 333 | 3.2 | 9.7 | 0.00 | 2.41 | 2.41 | 89 | 1006.5 |
| 20260506144529 | 11 | 315 | 4.8 | 11.3 | 0.00 | 2.41 | 2.41 | 89 | 1006.6 |
| 20260506144329 | 11 | 35 | 3.2 | 12.9 | 0.00 | 2.41 | 2.41 | 89 | 1006.5 |
| 20260506144129 | 11 | 58 | 3.2 | 12.9 | 0.00 | 2.41 | 2.41 | 89 | 1006.6 |
| 20260506143929 | 11 | 53 | 3.2 | 12.9 | 0.00 | 2.41 | 2.41 | 89 | 1006.6 |
| 20260506143729 | 11 | 45 | 3.2 | 12.9 | 0.00 | 2.41 | 2.41 | 89 | 1006.5 |
| 20260506143528 | 11 | 43 | 3.2 | 12.9 | 0.00 | 2.41 | 2.41 | 89 | 1006.6 |
| 20260506143329 | 11 | 15 | 3.2 | 8.0 | 0.00 | 2.41 | 2.41 | 89 | 1006.6 |
| 20260506143129 | 11 | 5 | 3.2 | 11.3 | 0.00 | 2.41 | 2.41 | 89 | 1006.6 |
| 20260506142929 | 11 | 355 | 4.8 | 11.3 | 0.00 | 2.41 | 2.41 | 89 | 1006.7 |
| 20260506142729 | 11 | 11 | 4.8 | 11.3 | 0.00 | 2.41 | 2.41 | 89 | 1006.6 |
| 20260506142527 | 11 | 14 | 4.8 | 11.3 | 0.00 | 2.41 | 2.41 | 89 | 1006.7 |
| 20260506142326 | 11 | 57 | 4.8 | 11.3 | 0.00 | 2.41 | 2.41 | 89 | 1006.6 |
| 20260506142127 | 11 | 340 | 4.8 | 9.7 | 0.00 | 2.41 | 2.41 | 89 | 1006.6 |
| 20260506141927 | 11 | 22 | 4.8 | 11.3 | 0.00 | 2.41 | 2.41 | 89 | 1006.6 |
| 20260506141726 | 11 | 355 | 4.8 | 11.3 | 0.00 | 2.41 | 2.41 | 88 | 1006.5 |
| 20260506141527 | 11 | 58 | 4.8 | 11.3 | 0.00 | 2.41 | 2.41 | 88 | 1006.5 |
| 20260506141325 | 11 | 47 | 4.8 | 11.3 | 0.00 | 2.41 | 2.41 | 88 | 1006.5 |
| 20260506141123 | 11 | 13 | 4.8 | 11.3 | 0.00 | 2.41 | 2.41 | 88 | 1006.6 |
| 20260506140921 | 11 | 290 | 3.2 | 11.3 | 0.00 | 2.41 | 2.41 | 88 | 1006.6 |
| 20260506140721 | 12 | 32 | 3.2 | 11.3 | 0.00 | 2.41 | 2.41 | 89 | 1006.6 |
| 20260506140521 | 12 | 59 | 3.2 | 11.3 | 0.00 | 2.41 | 2.41 | 89 | 1006.6 |
| 20260506140319 | 11 | 26 | 3.2 | 11.3 | 0.00 | 2.41 | 2.41 | 90 | 1006.7 |
| 20260506140119 | 11 | 38 | 4.8 | 16.1 | 0.00 | 2.41 | 2.41 | 89 | 1006.6 |
| 20260506135919 | 11 | 44 | 4.8 | 16.1 | 0.00 | 2.41 | 2.41 | 89 | 1006.5 |
| 20260506135718 | 11 | 65 | 4.8 | 16.1 | 0.00 | 2.41 | 2.41 | 89 | 1006.6 |
| 20260506135523 | 11 | 45 | 4.8 | 16.1 | 0.00 | 2.41 | 2.41 | 89 | 1006.6 |
| 20260506135321 | 11 | 50 | 4.8 | 16.1 | 0.00 | 2.41 | 2.41 | 89 | 1006.6 |
| 20260506135120 | 11 | 73 | 4.8 | 16.1 | 0.00 | 2.41 | 2.41 | 89 | 1006.6 |
| 20260506134917 | 11 | 55 | 3.2 | 8.0 | 0.00 | 2.41 | 2.41 | 90 | 1006.6 |
| 20260506134716 | 11 | 96 | 3.2 | 8.0 | 0.00 | 2.41 | 2.41 | 90 | 1006.6 |
| 20260506134516 | 11 | 17 | 3.2 | 8.0 | 0.00 | 2.41 | 2.41 | 90 | 1006.5 |
| 20260506134317 | 11 | 342 | 3.2 | 8.0 | 0.00 | 2.41 | 2.41 | 90 | 1006.5 |
| 20260506133510 | 11 | 0 | 3.2 | 9.7 | 0.00 | 2.41 | 2.41 | 91 | 1006.7 |
| 20260506133310 | 11 | 47 | 3.2 | 9.7 | 0.00 | 2.41 | 2.41 | 91 | 1007.0 |
| 20260506133111 | 11 | 65 | 4.8 | 9.7 | 0.00 | 2.41 | 2.41 | 91 | 1006.7 |
| 20260506132911 | 11 | 73 | 4.8 | 16.1 | 0.00 | 2.41 | 2.41 | 91 | 1006.7 |
| 20260506132710 | 11 | 62 | 3.2 | 16.1 | 0.00 | 2.41 | 2.41 | 91 | 1006.7 |
| 20260506132508 | 11 | 55 | 3.2 | 16.1 | 0.00 | 2.41 | 2.41 | 91 | 1006.7 |
| 20260506132307 | 11 | 351 | 3.2 | 16.1 | 0.00 | 2.41 | 2.41 | 91 | 1006.7 |
| 20260506132117 | 11 | 54 | 3.2 | 16.1 | 0.00 | 2.41 | 2.41 | 91 | 1006.7 |
| 20260506131907 | 11 | 45 | 1.6 | 8.0 | 0.00 | 2.41 | 2.41 | 91 | 1006.6 |
| 20260506131707 | 11 | 28 | 3.2 | 9.7 | 0.00 | 2.41 | 2.41 | 91 | 1006.7 |
| 20260506131507 | 11 | 52 | 3.2 | 12.9 | 0.00 | 2.41 | 2.41 | 91 | 1006.7 |
| 20260506131304 | 11 | 58 | 4.8 | 14.5 | 0.00 | 2.41 | 2.41 | 91 | 1006.6 |
| 20260506131105 | 11 | 64 | 4.8 | 14.5 | 0.00 | 2.41 | 2.41 | 91 | 1006.6 |
| 20260506130905 | 11 | 77 | 4.8 | 14.5 | 0.00 | 2.41 | 2.41 | 91 | 1006.6 |
| 20260506130704 | 11 | 66 | 4.8 | 14.5 | 0.00 | 2.41 | 2.41 | 91 | 1006.7 |
| 20260506130505 | 11 | 63 | 4.8 | 14.5 | 0.00 | 2.41 | 2.41 | 91 | 1006.6 |
| 20260506130305 | 11 | 19 | 4.8 | 14.5 | 0.00 | 2.41 | 2.41 | 91 | 1006.6 |
| 20260506130105 | 11 | 99 | 6.4 | 20.9 | 0.00 | 2.41 | 2.41 | 91 | 1006.6 |
| 20260506125905 | 11 | 57 | 6.4 | 20.9 | 0.00 | 2.41 | 2.41 | 91 | 1006.6 |
| 20260506125705 | 11 | 52 | 6.4 | 20.9 | 0.00 | 2.41 | 2.41 | 91 | 1006.6 |
| 20260506125505 | 11 | 10 | 6.4 | 20.9 | 0.00 | 2.41 | 2.41 | 91 | 1006.5 |
| 20260506125306 | 11 | 63 | 6.4 | 20.9 | 0.00 | 2.41 | 2.41 | 91 | 1006.5 |
| 20260506125104 | 11 | 80 | 4.8 | 14.5 | 0.00 | 2.41 | 2.41 | 92 | 1006.4 |
| 20260506124905 | 11 | 53 | 4.8 | 14.5 | 0.00 | 2.41 | 2.41 | 92 | 1006.5 |
| 20260506124704 | 11 | 47 | 4.8 | 14.5 | 0.00 | 2.41 | 2.41 | 92 | 1006.5 |
| 20260506124505 | 11 | 22 | 4.8 | 14.5 | 0.00 | 2.41 | 2.41 | 92 | 1006.5 |
| 20260506124305 | 11 | 59 | 4.8 | 14.5 | 0.00 | 2.41 | 2.41 | 93 | 1006.5 |
| 20260506124105 | 11 | 57 | 4.8 | 14.5 | 0.00 | 2.41 | 2.41 | 92 | 1006.6 |
| 20260506123905 | 11 | 24 | 4.8 | 14.5 | 0.00 | 2.41 | 2.41 | 92 | 1006.6 |
| 20260506123704 | 11 | 56 | 3.2 | 12.9 | 0.00 | 2.41 | 2.41 | 93 | 1006.5 |
| 20260506123505 | 11 | 32 | 3.2 | 11.3 | 0.00 | 2.41 | 2.41 | 92 | 1006.5 |
| 20260506123305 | 11 | 65 | 4.8 | 14.5 | 0.00 | 2.41 | 2.41 | 92 | 1006.5 |
| 20260506123104 | 11 | 23 | 4.8 | 14.5 | 0.00 | 2.41 | 2.41 | 93 | 1006.5 |
| 20260506122904 | 11 | 45 | 3.2 | 14.5 | 0.00 | 2.41 | 2.41 | 93 | 1006.4 |
| 20260506122705 | 11 | 9 | 4.8 | 14.5 | 0.00 | 2.41 | 2.41 | 92 | 1006.5 |
| 20260506122505 | 11 | 49 | 3.2 | 14.5 | 0.00 | 2.41 | 2.41 | 93 | 1006.4 |
| 20260506122306 | 11 | 111 | 3.2 | 11.3 | 0.00 | 2.41 | 2.41 | 93 | 1006.4 |
| 20260506122117 | 11 | 355 | 3.2 | 9.7 | 0.00 | 2.41 | 2.41 | 93 | 1006.4 |
| 20260506121905 | 11 | 14 | 3.2 | 9.7 | 0.00 | 2.41 | 2.41 | 93 | 1006.4 |
| 20260506121705 | 11 | 5 | 3.2 | 14.5 | 0.00 | 2.41 | 2.41 | 93 | 1006.3 |
| 20260506121505 | 11 | 344 | 3.2 | 14.5 | 0.00 | 2.41 | 2.41 | 93 | 1006.4 |
| 20260506121305 | 11 | 342 | 3.2 | 14.5 | 0.00 | 2.41 | 2.41 | 93 | 1006.3 |
| 20260506121105 | 11 | 24 | 3.2 | 14.5 | 0.00 | 2.41 | 2.41 | 93 | 1006.4 |
| 20260506120905 | 11 | 61 | 3.2 | 14.5 | 0.00 | 2.41 | 2.41 | 93 | 1006.3 |
| 20260506120704 | 11 | 293 | 4.8 | 14.5 | 0.00 | 2.41 | 2.41 | 93 | 1006.3 |
| 20260506120518 | 11 | 33 | 4.8 | 14.5 | 0.00 | 2.41 | 2.41 | 93 | 1006.3 |
| 20260506120305 | 11 | 53 | 4.8 | 14.5 | 0.00 | 2.41 | 2.41 | 93 | 1006.3 |
| 20260506120105 | 11 | 313 | 4.8 | 14.5 | 0.00 | 2.41 | 2.41 | 93 | 1006.3 |
| 20260506115905 | 11 | 29 | 3.2 | 14.5 | 0.00 | 2.41 | 2.41 | 93 | 1006.4 |
| 20260506115705 | 11 | 306 | 3.2 | 14.5 | 0.00 | 2.41 | 2.41 | 93 | 1006.3 |
| 20260506115504 | 11 | 49 | 3.2 | 11.3 | 0.00 | 2.41 | 2.41 | 93 | 1006.3 |
| 20260506115307 | 11 | 28 | 3.2 | 11.3 | 0.00 | 2.41 | 2.41 | 93 | 1006.3 |
| 20260506115104 | 11 | 26 | 3.2 | 11.3 | 0.00 | 2.41 | 2.41 | 93 | 1006.2 |
| 20260506114904 | 11 | 36 | 3.2 | 11.3 | 0.00 | 2.41 | 2.41 | 93 | 1006.2 |
| 20260506114705 | 11 | 42 | 1.6 | 8.0 | 0.00 | 2.41 | 2.41 | 93 | 1006.2 |
| 20260506114505 | 11 | 351 | 1.6 | 8.0 | 0.00 | 2.41 | 2.41 | 93 | 1006.2 |
| 20260506114305 | 11 | 0 | 1.6 | 8.0 | 0.00 | 2.41 | 2.41 | 93 | 1006.2 |
| 20260506114105 | 11 | 40 | 1.6 | 9.7 | 0.00 | 2.41 | 2.41 | 94 | 1006.2 |
| 20260506113905 | 11 | 37 | 3.2 | 9.7 | 0.00 | 2.41 | 2.41 | 94 | 1006.1 |
| 20260506113704 | 11 | 37 | 3.2 | 9.7 | 0.00 | 2.41 | 2.41 | 94 | 1006.0 |
| 20260506113504 | 11 | 37 | 3.2 | 9.7 | 0.00 | 2.41 | 2.41 | 94 | 1006.0 |
| 20260506113305 | 11 | 5 | 3.2 | 9.7 | 0.00 | 2.41 | 2.41 | 94 | 1006.0 |
| 20260506113105 | 11 | 304 | 3.2 | 8.0 | 0.00 | 2.41 | 2.41 | 94 | 1006.1 |
| 20260506112905 | 11 | 47 | 3.2 | 8.0 | 0.00 | 2.41 | 2.41 | 94 | 1006.0 |
| 20260506112705 | 11 | 0 | 3.2 | 8.0 | 0.00 | 2.41 | 2.41 | 94 | 1005.9 |
| 20260506112504 | 11 | 331 | 3.2 | 8.0 | 0.00 | 2.41 | 2.41 | 94 | 1006.0 |
| 20260506112316 | 11 | 340 | 3.2 | 8.0 | 0.00 | 2.41 | 2.41 | 94 | 1005.9 |
| 20260506112102 | 11 | 46 | 3.2 | 8.0 | 0.00 | 2.41 | 2.41 | 94 | 1005.9 |
| 20260506111502 | 11 | 46 | 4.8 | 12.9 | 0.00 | 2.41 | 2.41 | 94 | 1006.0 |
| 20260506111301 | 11 | 42 | 4.8 | 12.9 | 0.00 | 2.41 | 2.41 | 94 | 1005.8 |
| 20260506111101 | 11 | 71 | 3.2 | 12.9 | 0.00 | 2.41 | 2.41 | 94 | 1005.7 |
| 20260506110901 | 11 | 63 | 3.2 | 12.9 | 0.00 | 2.41 | 2.41 | 94 | 1005.8 |
| 20260506110702 | 11 | 39 | 3.2 | 12.9 | 0.00 | 2.41 | 2.41 | 94 | 1005.7 |
| 20260506110457 | 11 | 65 | 3.2 | 12.9 | 0.00 | 2.41 | 2.41 | 94 | 1005.7 |
| 20260506110257 | 11 | 90 | 3.2 | 11.3 | 0.00 | 2.41 | 2.41 | 94 | 1005.8 |
| 20260506110057 | 11 | 38 | 3.2 | 11.3 | 0.00 | 2.41 | 2.41 | 94 | 1005.8 |
| 20260506105856 | 11 | 38 | 4.8 | 14.5 | 0.00 | 2.41 | 2.41 | 94 | 1005.7 |
| 20260506105657 | 11 | 38 | 4.8 | 14.5 | 0.00 | 2.41 | 2.41 | 94 | 1005.7 |
| 20260506105457 | 11 | 47 | 4.8 | 14.5 | 0.00 | 2.41 | 2.41 | 94 | 1005.7 |
| 20260506105256 | 11 | 355 | 4.8 | 14.5 | 0.00 | 2.41 | 2.41 | 94 | 1005.7 |
| 20260506105057 | 11 | 17 | 4.8 | 14.5 | 0.00 | 2.41 | 2.41 | 94 | 1005.7 |
| 20260506104857 | 11 | 17 | 4.8 | 12.9 | 0.00 | 2.41 | 2.41 | 94 | 1005.6 |
| 20260506104656 | 11 | 336 | 3.2 | 12.9 | 0.00 | 2.41 | 2.41 | 94 | 1005.7 |
| 20260506104457 | 11 | 35 | 3.2 | 12.9 | 0.00 | 2.41 | 2.41 | 94 | 1005.7 |
| 20260506104255 | 11 | 331 | 3.2 | 12.9 | 0.00 | 2.41 | 2.41 | 94 | 1005.6 |
| 20260506104054 | 11 | 0 | 3.2 | 12.9 | 0.03 | 2.41 | 2.41 | 94 | 1005.7 |
| 20260506103853 | 11 | 28 | 3.2 | 12.9 | 0.03 | 2.41 | 2.41 | 94 | 1005.6 |
| 20260506103653 | 11 | 79 | 3.2 | 12.9 | 0.03 | 2.41 | 2.41 | 94 | 1005.5 |
| 20260506103453 | 11 | 330 | 3.2 | 12.9 | 0.03 | 2.41 | 2.41 | 94 | 1005.5 |
| 20260506103252 | 11 | 355 | 3.2 | 14.5 | 0.03 | 2.41 | 2.41 | 94 | 1005.5 |
| 20260506103050 | 11 | 15 | 3.2 | 14.5 | 0.03 | 2.41 | 2.41 | 94 | 1005.5 |
| 20260506102848 | 11 | 53 | 4.8 | 14.5 | 0.03 | 2.41 | 2.41 | 94 | 1005.5 |
| 20260506102648 | 11 | 350 | 4.8 | 14.5 | 0.03 | 2.41 | 2.41 | 94 | 1005.5 |
| 20260506102449 | 11 | 42 | 4.8 | 14.5 | 0.05 | 2.41 | 2.41 | 94 | 1005.8 |
| 20260506102248 | 11 | 46 | 4.8 | 14.5 | 0.05 | 2.41 | 2.41 | 94 | 1005.4 |
| 20260506102047 | 11 | 340 | 4.8 | 14.5 | 0.05 | 2.41 | 2.41 | 94 | 1005.3 |
| 20260506101847 | 11 | 63 | 4.8 | 14.5 | 0.05 | 2.41 | 2.41 | 94 | 1005.3 |
| 20260506101646 | 11 | 34 | 3.2 | 14.5 | 0.05 | 2.41 | 2.41 | 94 | 1005.4 |
| 20260506101446 | 11 | 69 | 3.2 | 14.5 | 0.05 | 2.41 | 2.41 | 95 | 1005.4 |
| 20260506101246 | 11 | 11 | 4.8 | 11.3 | 0.08 | 2.41 | 2.41 | 95 | 1005.4 |
| 20260506101046 | 11 | 68 | 4.8 | 16.1 | 0.08 | 2.41 | 2.41 | 94 | 1005.4 |
| 20260506100846 | 11 | 5 | 4.8 | 16.1 | 0.08 | 2.41 | 2.41 | 94 | 1005.4 |
| 20260506100647 | 10 | 38 | 4.8 | 16.1 | 0.10 | 2.41 | 2.41 | 94 | 1005.3 |
| 20260506100446 | 10 | 63 | 4.8 | 16.1 | 0.10 | 2.41 | 2.41 | 94 | 1005.4 |
| 20260506100248 | 11 | 75 | 4.8 | 16.1 | 0.10 | 2.41 | 2.41 | 94 | 1005.4 |
| 20260506100047 | 11 | 41 | 4.8 | 14.5 | 0.13 | 2.41 | 2.41 | 95 | 1005.4 |
| 20260506095847 | 11 | 55 | 4.8 | 14.5 | 0.13 | 2.41 | 2.41 | 95 | 1005.3 |
| 20260506095645 | 10 | 5 | 4.8 | 14.5 | 0.15 | 2.41 | 2.41 | 95 | 1005.3 |
| 20260506095443 | 10 | 56 | 4.8 | 14.5 | 0.15 | 2.41 | 2.41 | 94 | 1005.2 |
| 20260506095241 | 10 | 20 | 3.2 | 11.3 | 0.18 | 2.41 | 2.41 | 95 | 1005.2 |
| 20260506095041 | 10 | 66 | 3.2 | 11.3 | 0.20 | 2.41 | 2.41 | 95 | 1005.2 |
| 20260506094841 | 10 | 43 | 3.2 | 8.0 | 0.23 | 2.41 | 2.41 | 94 | 1005.2 |
| 20260506094640 | 10 | 57 | 3.2 | 16.1 | 0.23 | 2.41 | 2.41 | 95 | 1005.2 |
| 20260506094441 | 10 | 24 | 3.2 | 16.1 | 0.25 | 2.41 | 2.41 | 95 | 1005.2 |
| 20260506094240 | 10 | 51 | 3.2 | 16.1 | 0.28 | 2.41 | 2.39 | 95 | 1005.2 |
| 20260506094040 | 10 | 18 | 4.8 | 16.1 | 0.28 | 2.39 | 2.39 | 94 | 1005.2 |
| 20260506093841 | 10 | 14 | 4.8 | 16.1 | 0.30 | 2.39 | 2.39 | 95 | 1005.2 |
| 20260506093642 | 10 | 11 | 3.2 | 11.3 | 0.30 | 2.39 | 2.39 | 95 | 1005.1 |
| 20260506093438 | 10 | 9 | 4.8 | 11.3 | 0.33 | 2.39 | 2.39 | 94 | 1005.1 |
| 20260506093236 | 10 | 340 | 4.8 | 9.7 | 0.33 | 2.39 | 2.39 | 95 | 1005.2 |
| 20260506093036 | 10 | 355 | 4.8 | 11.3 | 0.33 | 2.39 | 2.39 | 94 | 1005.2 |
| 20260506092836 | 10 | 319 | 4.8 | 11.3 | 0.36 | 2.39 | 2.39 | 95 | 1005.0 |
| 20260506092634 | 10 | 306 | 3.2 | 11.3 | 0.36 | 2.39 | 2.39 | 95 | 1005.1 |
| 20260506092434 | 10 | 355 | 3.2 | 11.3 | 0.36 | 2.39 | 2.39 | 95 | 1005.1 |
| 20260506092235 | 10 | 27 | 3.2 | 11.3 | 0.36 | 2.39 | 2.39 | 94 | 1005.1 |
| 20260506092036 | 10 | 32 | 3.2 | 8.0 | 0.38 | 2.39 | 2.39 | 95 | 1005.1 |
| 20260506091833 | 10 | 60 | 3.2 | 8.0 | 0.36 | 2.36 | 2.36 | 94 | 1005.1 |
| 20260506091632 | 10 | 343 | 3.2 | 8.0 | 0.38 | 2.36 | 2.36 | 95 | 1005.1 |
| 20260506091433 | 10 | 329 | 3.2 | 9.7 | 0.41 | 2.36 | 2.34 | 95 | 1005.0 |
| 20260506091034 | 10 | 33 | 3.2 | 9.7 | 0.41 | 2.34 | 2.34 | 95 | 1005.0 |
| 20260506090830 | 10 | 53 | 3.2 | 9.7 | 0.43 | 2.34 | 2.31 | 94 | 1005.0 |
| 20260506090630 | 10 | 355 | 4.8 | 14.5 | 0.43 | 2.31 | 2.31 | 94 | 1005.0 |
| 20260506090433 | 10 | 327 | 4.8 | 14.5 | 0.43 | 2.31 | 2.31 | 94 | 1005.0 |
| 20260506090231 | 10 | 44 | 4.8 | 14.5 | 0.46 | 2.31 | 2.31 | 94 | 1005.1 |
| 20260506090030 | 10 | 59 | 4.8 | 14.5 | 0.46 | 2.31 | 2.31 | 94 | 1005.0 |
| 20260506085830 | 10 | 346 | 4.8 | 14.5 | 0.46 | 2.31 | 2.29 | 94 | 1005.0 |
| 20260506085629 | 10 | 41 | 3.2 | 9.7 | 0.46 | 2.29 | 2.26 | 94 | 1005.0 |
| 20260506085431 | 10 | 16 | 3.2 | 9.7 | 0.43 | 2.26 | 2.24 | 94 | 1004.9 |
| 20260506085229 | 10 | 13 | 3.2 | 9.7 | 0.43 | 2.24 | 2.24 | 94 | 1005.0 |
| 20260506085028 | 10 | 49 | 3.2 | 9.7 | 0.43 | 2.21 | 2.21 | 94 | 1005.1 |
| 20260506084828 | 10 | 328 | 3.2 | 9.7 | 0.43 | 2.21 | 2.18 | 94 | 1005.0 |
| 20260506084628 | 10 | 35 | 3.2 | 12.9 | 0.41 | 2.18 | 2.18 | 94 | 1005.0 |
| 20260506084429 | 10 | 17 | 3.2 | 12.9 | 0.41 | 2.16 | 2.16 | 94 | 1005.0 |
| 20260506084228 | 10 | 9 | 3.2 | 12.9 | 0.41 | 2.13 | 2.13 | 94 | 1005.0 |
| 20260506084027 | 10 | 55 | 3.2 | 12.9 | 0.38 | 2.11 | 2.11 | 94 | 1005.1 |
| 20260506083822 | 10 | 350 | 3.2 | 12.9 | 0.38 | 2.11 | 2.11 | 94 | 1005.1 |
| 20260506083623 | 10 | 355 | 3.2 | 9.7 | 0.38 | 2.11 | 2.08 | 94 | 1005.0 |
| 20260506083422 | 10 | 24 | 3.2 | 12.9 | 0.38 | 2.08 | 2.08 | 94 | 1005.0 |
| 20260506083222 | 10 | 30 | 3.2 | 12.9 | 0.38 | 2.06 | 2.06 | 94 | 1005.0 |
| 20260506083022 | 10 | 355 | 4.8 | 12.9 | 0.38 | 2.06 | 2.06 | 94 | 1005.0 |
| 20260506082822 | 10 | 348 | 4.8 | 12.9 | 0.38 | 2.03 | 2.03 | 94 | 1005.0 |
| 20260506082622 | 10 | 47 | 4.8 | 12.9 | 0.38 | 2.03 | 2.03 | 94 | 1004.9 |
| 20260506082422 | 10 | 24 | 4.8 | 12.9 | 0.38 | 2.03 | 2.03 | 94 | 1005.0 |
| 20260506082222 | 10 | 11 | 3.2 | 12.9 | 0.41 | 2.03 | 2.01 | 94 | 1005.0 |
| 20260506082022 | 10 | 76 | 3.2 | 12.9 | 0.41 | 2.01 | 2.01 | 94 | 1004.9 |
| 20260506081822 | 10 | 87 | 3.2 | 12.9 | 0.38 | 1.98 | 1.98 | 94 | 1005.0 |
| 20260506081620 | 10 | 355 | 3.2 | 12.9 | 0.41 | 1.98 | 1.98 | 94 | 1005.0 |
| 20260506081420 | 10 | 15 | 4.8 | 12.9 | 0.41 | 1.96 | 1.96 | 94 | 1004.9 |
| 20260506081220 | 10 | 351 | 4.8 | 12.9 | 0.43 | 1.96 | 1.93 | 94 | 1005.0 |
| 20260506081021 | 10 | 36 | 3.2 | 9.7 | 0.41 | 1.93 | 1.93 | 94 | 1004.9 |
| 20260506080821 | 10 | 11 | 4.8 | 11.3 | 0.41 | 1.93 | 1.93 | 94 | 1005.0 |
| 20260506080618 | 10 | 23 | 3.2 | 11.3 | 0.38 | 1.91 | 1.91 | 94 | 1005.0 |
| 20260506080418 | 10 | 348 | 3.2 | 11.3 | 0.38 | 1.88 | 1.88 | 94 | 1005.0 |
| 20260506080218 | 10 | 26 | 1.6 | 11.3 | 0.36 | 1.85 | 1.85 | 94 | 1005.0 |
| 20260506073411 | 10 | 355 | 3.2 | 8.0 | 0.23 | 1.70 | 1.70 | 94 | 1004.7 |
| 20260506073207 | 10 | 329 | 3.2 | 8.0 | 0.23 | 1.68 | 1.68 | 94 | 1004.7 |
| 20260506073006 | 10 | 338 | 3.2 | 11.3 | 0.23 | 1.68 | 1.68 | 94 | 1004.7 |
| 20260506072804 | 10 | 317 | 3.2 | 11.3 | 0.20 | 1.65 | 1.65 | 94 | 1004.7 |
| 20260506072604 | 10 | 19 | 1.6 | 11.3 | 0.20 | 1.65 | 1.65 | 94 | 1004.7 |
| 20260506072405 | 10 | 71 | 1.6 | 11.3 | 0.20 | 1.65 | 1.65 | 94 | 1004.6 |
| 20260506072204 | 10 | 71 | 3.2 | 11.3 | 0.18 | 1.63 | 1.63 | 94 | 1004.6 |
| 20260506072004 | 10 | 5 | 3.2 | 19.3 | 0.15 | 1.60 | 1.60 | 94 | 1004.5 |
| 20260506071804 | 10 | 5 | 3.2 | 19.3 | 0.15 | 1.60 | 1.57 | 94 | 1004.6 |
| 20260506071605 | 10 | 21 | 4.8 | 19.3 | 0.15 | 1.57 | 1.57 | 94 | 1004.5 |
| 20260506071407 | 10 | 22 | 4.8 | 19.3 | 0.13 | 1.55 | 1.55 | 94 | 1004.5 |
| 20260506071205 | 10 | 50 | 3.2 | 19.3 | 0.13 | 1.55 | 1.55 | 94 | 1004.4 |
| 20260506071002 | 10 | 46 | 3.2 | 11.3 | 0.13 | 1.55 | 1.52 | 94 | 1004.5 |
| 20260506070801 | 10 | 54 | 3.2 | 9.7 | 0.10 | 1.52 | 1.52 | 94 | 1004.5 |
| 20260506070602 | 10 | 34 | 3.2 | 14.5 | 0.10 | 1.52 | 1.50 | 94 | 1004.4 |
| 20260506070404 | 10 | 44 | 3.2 | 14.5 | 0.08 | 1.50 | 1.50 | 94 | 1004.5 |
| 20260506070202 | 10 | 46 | 3.2 | 14.5 | 0.10 | 1.50 | 1.50 | 94 | 1004.5 |
| 20260506062358 | 10 | 28 | 3.2 | 12.9 | 0.08 | 1.45 | 1.45 | 94 | 1004.3 |
| 20260506062158 | 10 | 67 | 3.2 | 12.9 | 0.08 | 1.45 | 1.45 | 94 | 1004.3 |
| 20260506062000 | 10 | 44 | 3.2 | 12.9 | 0.08 | 1.45 | 1.45 | 94 | 1004.3 |
| 20260506061800 | 10 | 81 | 3.2 | 12.9 | 0.08 | 1.45 | 1.45 | 94 | 1004.4 |
| 20260506061601 | 10 | 65 | 4.8 | 9.7 | 0.10 | 1.45 | 1.45 | 94 | 1004.4 |
| 20260506061354 | 10 | 5 | 4.8 | 16.1 | 0.10 | 1.45 | 1.45 | 94 | 1004.4 |
| 20260506061157 | 10 | 75 | 4.8 | 16.1 | 0.08 | 1.42 | 1.42 | 94 | 1004.4 |
| 20260506060952 | 10 | 53 | 6.4 | 16.1 | 0.10 | 1.42 | 1.42 | 94 | 1004.4 |
| 20260506060752 | 10 | 77 | 4.8 | 16.1 | 0.10 | 1.42 | 1.42 | 94 | 1004.4 |
| 20260506060552 | 10 | 69 | 4.8 | 16.1 | 0.10 | 1.42 | 1.42 | 94 | 1004.4 |
| 20260506060352 | 10 | 338 | 4.8 | 14.5 | 0.10 | 1.42 | 1.42 | 94 | 1004.4 |
| 20260506060152 | 10 | 26 | 3.2 | 14.5 | 0.10 | 1.40 | 1.40 | 94 | 1004.5 |
| 20260506051340 | 10 | 55 | 1.6 | 8.0 | 0.23 | 1.37 | 1.35 | 94 | 1004.6 |
| 20260506051140 | 10 | 26 | 3.2 | 6.4 | 0.23 | 1.37 | 1.32 | 94 | 1004.6 |
| 20260506050941 | 10 | 16 | 1.6 | 6.4 | 0.23 | 1.37 | 1.32 | 94 | 1004.6 |
| 20260506050738 | 10 | 14 | 3.2 | 6.4 | 0.23 | 1.40 | 1.32 | 94 | 1004.6 |
| 20260506050537 | 10 | 5 | 3.2 | 6.4 | 0.23 | 1.40 | 1.32 | 94 | 1004.6 |
| 20260506050337 | 9 | 38 | 3.2 | 6.4 | 0.25 | 1.40 | 1.30 | 94 | 1004.6 |
| 20260506050138 | 9 | 55 | 3.2 | 8.0 | 0.25 | 1.40 | 1.30 | 94 | 1004.6 |
| 20260506044938 | 9 | 24 | 3.2 | 12.9 | 0.33 | 1.50 | 1.27 | 94 | 1004.7 |
| 20260506044738 | 9 | 30 | 3.2 | 12.9 | 0.33 | 1.52 | 1.24 | 94 | 1004.7 |
| 20260506044537 | 9 | 21 | 3.2 | 12.9 | 0.33 | 1.52 | 1.24 | 94 | 1004.8 |
| 20260506044337 | 9 | 21 | 3.2 | 12.9 | 0.33 | 1.52 | 1.24 | 94 | 1004.9 |
| 20260506044138 | 9 | 72 | 3.2 | 12.9 | 0.33 | 1.52 | 1.22 | 94 | 1004.8 |
| 20260506043941 | 9 | 51 | 4.8 | 9.7 | 0.36 | 1.55 | 1.22 | 94 | 1004.7 |
| 20260506043743 | 9 | 39 | 4.8 | 9.7 | 0.36 | 1.55 | 1.19 | 94 | 1004.9 |
| 20260506043539 | 9 | 53 | 4.8 | 12.9 | 0.38 | 1.57 | 1.17 | 94 | 1004.7 |
| 20260506043334 | 9 | 47 | 4.8 | 12.9 | 0.36 | 1.60 | 1.17 | 94 | 1004.8 |
| 20260506043133 | 9 | 5 | 4.8 | 12.9 | 0.36 | 1.60 | 1.17 | 94 | 1004.9 |
| 20260506042934 | 9 | 69 | 4.8 | 12.9 | 0.36 | 1.65 | 1.17 | 94 | 1004.9 |
| 20260506042732 | 9 | 30 | 4.8 | 12.9 | 0.38 | 1.73 | 1.14 | 94 | 1004.8 |
| 20260506042532 | 9 | 69 | 3.2 | 9.7 | 0.38 | 1.83 | 1.14 | 94 | 1004.9 |
| 20260506042330 | 9 | 22 | 3.2 | 9.7 | 0.38 | 2.01 | 1.14 | 94 | 1004.9 |
| 20260506042129 | 9 | 46 | 4.8 | 12.9 | 0.41 | 2.11 | 1.12 | 94 | 1004.9 |
| 20260506041930 | 9 | 34 | 4.8 | 12.9 | 0.43 | 2.21 | 1.12 | 94 | 1004.9 |
| 20260506041730 | 9 | 33 | 4.8 | 12.9 | 0.43 | 2.26 | 1.12 | 94 | 1004.9 |
| 20260506041530 | 9 | 80 | 4.8 | 12.9 | 0.46 | 2.36 | 1.12 | 94 | 1004.9 |
| 20260506041329 | 9 | 32 | 4.8 | 12.9 | 0.46 | 2.39 | 1.09 | 94 | 1004.9 |
| 20260506041130 | 9 | 46 | 4.8 | 9.7 | 0.48 | 2.39 | 1.09 | 94 | 1004.9 |
| 20260506040929 | 9 | 5 | 4.8 | 11.3 | 0.51 | 2.39 | 1.09 | 94 | 1004.9 |
| 20260506040729 | 9 | 30 | 3.2 | 11.3 | 0.51 | 2.39 | 1.09 | 94 | 1004.9 |
| 20260506040529 | 9 | 13 | 4.8 | 11.3 | 0.51 | 2.39 | 1.07 | 94 | 1004.9 |
| 20260506040329 | 9 | 49 | 4.8 | 11.3 | 0.51 | 2.39 | 1.04 | 94 | 1005.0 |
| 20260506035933 | 9 | 42 | 4.8 | 14.5 | 0.53 | 2.39 | 1.02 | 94 | 1005.0 |
| 20260506035734 | 9 | 22 | 4.8 | 14.5 | 0.51 | 2.39 | 0.99 | 94 | 1004.9 |